Other Public Products
Issued by NWS Grand Forks, ND

Home | Current Version | Previous Version | Graphics & Text | Print | Product List | Glossary On
Versions: 1 2 3 4 5 6 7 8 9 10 11 12 13 14 15 16 17 18 19 20 21 22 23 24 25 26 27 28 29 30 31 32 33 34 35 36 37 38 39 40 41 42 43 44 45 46 47 48 49 50
535
FPUS83 KFGF 302110
OPUFGF
PRAIRIE TO PINES WEATHER ROUNDUP
NATIONAL WEATHER SERVICE EASTERN NORTH DAKOTA/GRAND FORKS ND
400 PM CDT FRI SEP 30 2016

 **SATELLITE DATA USED TO AUGMENT SKY COVER AT AUTOMATED STATIONS**
 *****  WEATHER ACROSS EASTERN NORTH DAKOTA  *****

CITY           SKY/WX    TMP DP  RH WIND       PRES   REMARKS
GRAND FORKS    PTSUNNY   70  49  47 SE16      30.20F
GRAND FORKS AF MOSUNNY   66  50  55 SE13      30.19F
GRAND CITY NWS   N/A     68 N/A N/A S7          N/A
BUXTON         NOT AVBL
DEVILS LAKE    CLOUDY    63  50  62 S10       30.17S
FARGO          CLOUDY    73  49  42 SE15      30.21F
WAHPETON ARPT  CLOUDY    68  45  42 SE13G18   30.22F
$$

 *****  WEATHER ACROSS CENTRAL AND WESTERN NORTH DAKOTA  *****

CITY           SKY/WX    TMP DP  RH WIND       PRES   REMARKS
JAMESTOWN      CLOUDY    69  47  45 S15G24    30.15F
BISMARCK       CLOUDY    68  48  48 SE14      30.09S
MINOT          CLOUDY    61  53  75 NE5       30.07F
MINOT AFB      CLOUDY    59  53  80 SE8       30.07S
GARRISON         N/A     64  53  67 SE6       30.06F
WILLISTON      CLOUDY    63  51  65 SE14G22   29.98F
DICKINSON      SUNNY     65  45  48 SE17      30.01F
HETTINGER      CLOUDY    69  46  43 SE17G26   30.03F
$$

 *****  OTHER OBSERVATIONS NORTHEAST NORTH DAKOTA  *****

CITY           SKY/WX    TMP DP  RH WIND       PRES   REMARKS
WALHALLA       FAIR      66  63  88 SE16G23   30.19F
LANGDON        FAIR      68  52  56 SE21      30.18F
CAVALIER       FAIR      66  54  63 SE10G18   30.20F
GRAFTON        FAIR      68  54  60 SE13G21   30.22F
CANDO          FAIR      64  48  55 S18       30.19R
FORT TOTTEN      N/A     64  49  59 S12       29.95S
ROLLA          CLOUDY    63  46  55 S14G21    30.16S
RUGBY          FAIR      66  50  55 S16       30.13S
 ***** THE ABOVE OBSERVATIONS ARE NON NWS ARE NOT QUALITY
        CONTROLLED AND MAY MIS-REPORT RAIN FOR SNOW...
$$

 *****  OTHER OBSERVATIONS SOUTHEAST NORTH DAKOTA *****

CITY           SKY/WX    TMP DP  RH WIND       PRES   REMARKS
COOPERSTOWN    FAIR      70  48  46 SE16      30.19S
VALLEY CITY    FAIR      66  50  55 SE14G20   30.20S
OAKES          NOT AVBL
GWINNER        FAIR      72  52  49 SE14      30.19F
SHEYENNE NWR     N/A     72  46  40 S14       29.95
BUFFALO        NOT AVBL
WYNDMERE       NOT AVBL
 ***** THE ABOVE OBSERVATIONS ARE NON NWS ARE NOT QUALITY
       CONTROLLED AND MAY MIS-REPORT RAIN FOR SNOW...
$$

  *****  WEATHER ACROSS NORTHERN MINNESOTA  *****

CITY           SKY/WX    TMP DP  RH WIND       PRES   REMARKS
FLAG ISLAND    CLOUDY    54  50  87 SE15      30.31F
WARROAD        CLOUDY    57  52  82 E10       30.31F
ROSEAU         CLOUDY    63  54  72 SE10      30.28F
HALLOCK        MOSUNNY   68  54  60 SE13G18   30.22F
THF RVR FALLS  MOSUNNY   66  49  54 S10       30.25F
HALSTAD          N/A     71  48  44 S18         N/A
FOSSTON        CLOUDY    66  50  55 SE9       30.27S
BAUDETTE       CLOUDY    56  51  84 SE9       30.32F
WASKISH        MOSUNNY   61  54  77 SE8       30.31F
CROOKSTON      PTSUNNY   70  50  49 S12       30.23F
$$
  *****  WEATHER ACROSS CENTRAL AND WEST MINNESOTA  *****

CITY           SKY/WX    TMP DP  RH WIND       PRES   REMARKS
BEMIDJI        MOSUNNY   60  52  76 SE10      30.30F
PARK RAPIDS    SUNNY     68  49  50 E10       30.27F
WADENA         SUNNY     66  52  59 SE8       30.27F
DETROIT LAKES  CLOUDY    63  52  67 SE8       30.27F
MOORHEAD       CLOUDY    68  46  45 S14       30.23S
FERGUS FALLS   CLOUDY    66  52  59 SE12      30.26F
ELBOW LAKE     FAIR      67  53  61 SE9G16    30.25F
MORRIS MN      SUNNY     73  50  43 SE13      30.22F
STAPLES        CLOUDY    66  50  55 E3        30.28F
WHEATON        NOT AVBL
$$
  *****  WEATHER ELSEWHERE ACROSS MINNESOTA  *****

CITY           SKY/WX    TMP DP  RH WIND       PRES   REMARKS
DULUTH         CLOUDY    56  52  86 E12       30.34F
INTRNTL FALLS  CLOUDY    57  51  80 SE5       30.34F
ELY            SUNNY     66  45  45 E6        30.34F
CLOQUET        MOSUNNY   55  50  82 E10       30.34F
BRAINERD       SUNNY     66  50  56 VRB3      30.29F
HIBBING        SUNNY     66  47  50 E9        30.32F
ALEXANDRIA     SUNNY     68  51  54 E14       30.27F
SAINT CLOUD    SUNNY     70  48  45 E9        30.26F
MINNEAPOLIS    MOSUNNY   71  51  49 NE9       30.24F
$$

  *****  WEATHER ACROSS SOUTH DAKOTA  *****

CITY           SKY/WX    TMP DP  RH WIND       PRES   REMARKS
SIOUX FALLS    CLOUDY    72  46  39 SE10      30.19F
BROOKINGS      SUNNY     70  45  40 SE14      30.20F
WATERTOWN      MOSUNNY   71  45  39 SE8G21    30.20F
HURON          PTSUNNY   73  47  39 S15G22    30.16F
SISSETON         N/A     71  49  45 SE15      30.20F
ABERDEEN       PTSUNNY   72  42  34 SE16      30.16F
MITCHELL       MOSUNNY   73  45  36 S10       30.18F
PIERRE         CLOUDY    72  46  39 SE23G32   30.08F
MOBRIDGE       PTSUNNY   73  44  35 SE24G31   30.07S
RAPID CITY     PTSUNNY   71  50  47 SE8       30.03F
$$

  *****  SOME WEATHER IN NEARBY STATES *****

CITY           SKY/WX    TMP DP  RH WIND       PRES   REMARKS
GLASGOW MT     CLOUDY    77  50  38 VRB5      29.93S
GREAT FALLS MT CLOUDY    78  43  28 CALM      29.99F
CHEYENNE WY    CLOUDY    69  45  41 VRB6      30.22F
SCOTTSBLUFF NE CLOUDY    68  49  50 SE9       30.13F
OMAHA NE       MOSUNNY   76  45  33 NE3       30.17F
DES MOINES IA  CLOUDY    66  55  67 N9        30.17F
DAVENPORT IA   CLOUDY    66  57  72 N15       30.12F
CHICAGO IL     CLOUDY    64  59  83 NE13      30.08F
EAU CLAIRE WI  MOSUNNY   73  47  39 NE9       30.22F
LA CROSSE WI   CLOUDY    67  56  67 E8        30.20F
$$

  *****  SOME NATIONAL WEATHER *****

CITY           SKY/WX    TMP DP  RH WIND       PRES   REMARKS
LA GUARDIA NY  CLOUDY    63  58  83 NE25G36   30.24S HAZE
RALEIGH NC     CLOUDY    82  70  66 SE10      29.96S
ATLANTA GA     MOSUNNY   74  47  38 VRB6      30.02F
NEW ORLEANS LA MOSUNNY   81  56  42 N7        30.04F
OKLAHOMA CITY  MOSUNNY   75  45  34 NW6       30.13F
ALBUQUERQUE NM MOSUNNY   74  50  42 S5        30.22F
SALT LAKE CITY MOSUNNY   76  49  38 S10       30.12F
LOS ANGELES CA MOSUNNY   78  59  51 W13       29.98F
BOISE ID       SUNNY     85  33  15 SE10      29.95F
SEATTLE WA     MOSUNNY   60  47  61 W6        29.99F
$$

*** WEATHER ACROSS MANITOBA...SASKATCHEWAN AND ONTARIO ***
                ***ONTARIO***

CITY           SKY/WX    TMP DP  RH WIND       PRES   REMARKS
GERALDTON      MOSUNNY   68  48  49 CALM      30.39F
THUNDER BAY    MOSUNNY   68  50  52 E7        30.36F
SIOUX LOOKOUT  PTSUNNY   66  52  59 S5        30.34F
TORONTO        PTSUNNY   63  50  63 E18G25    30.24F
BIG TROUT LK   SUNNY     63  50  63 S5        30.32F
PICKLE LAKE    MOSUNNY   61  48  63 S9        30.37F
DRYDEN         SUNNY     61  50  67 S8        30.34F
KENORA         PTSUNNY   59  50  72 S12       30.32S
$$
                *** MANITOBA***

CITY           SKY/WX    TMP DP  RH WIND       PRES   REMARKS
BRANDON        PTSUNNY   66  50  55 SE17      30.12S
DAUPHIN        MOSUNNY   63  52  67 SE18      30.09F
ISLAND LAKE    MOSUNNY   66  50  55 S8        30.22F
PILOT MOUND      N/A     64  48  55 S18         N/A
THE PAS        MOSUNNY   66  50  55 SE20      30.04F
THOMPSON       PTSUNNY   61  52  72 S5        30.16F
WINNIPEG       PTSUNNY   66  52  59 S14G22    30.21F
LYNN LAKE      LGT RAIN  50  48  93 E10       30.17S
CHURCHILL      PTSUNNY   48  39  71 NE13      30.34S
GILLAM         CLOUDY    55  54  94 E3        30.25S
$$
                ***SASKATCHEWAN***

CITY           SKY/WX    TMP DP  RH WIND       PRES   REMARKS
ESTEVAN        NOT AVBL
KINDERSLEY     PTSUNNY   63  50  63 NE12      29.95F
LLOYDMINSTER   PTSUNNY   55  48  76 NE16      30.00F
PRINCE ALBERT  MOSUNNY   66  50  55 E8        29.97S
REGINA         PTSUNNY   72  50  46 SE15      29.97S
YORKTON        SUNNY     68  50  52 S13G22    30.00F   C1F1C2F2C3F3C4F4C5F5C6F6C7F7C8F8C9F9CaFaCbFbCcFcCdFdCe!



USA.gov is the U.S. government's official web portal to all federal, state and local government web resources and services.